Miscellaneous Local Product
Issued by NWS North Platte, NE

Home | Current Version | Previous Version | Text Only | Print | Product List | Glossary On
Versions: 1 2 3 4 5 6 7 8 9 10 11 12 13 14 15 16 17 18 19 20 21 22 23 24 25 26 27 28 29 30 31 32 33 34 35 36 37 38 39 40 41 42 43 44 45 46 47 48 49 50
000
AXUS43 KLBF 230610
MISLBF


WESTERN AND NORTH CENTRAL NEBRASKA HOURLY WEATHER ROUNDUP
NATIONAL WEATHER SERVICE NORTH PLATTE NE
100 AM CDT SAT JUL 23 2016

NOTE: "FAIR" INDICATES FEW OR NO CLOUDS BELOW 12,000 FEET WITH NO
SIGNIFICANT WEATHER AND/OR OBSTRUCTIONS TO VISIBILITY.

NOTE: STATIONS NOT REPORTING VARIABLES SUCH AS SKY/WEATHER OR
PRESSURE ARE PROVIDED BY RAWS AND APRS NETWORKS AND ARE NOT UNDER
NATIONAL WEATHER SERVICE QUALITY CONTROL.

...OBSERVATIONS IN AND NEAR THE EASTERN PANHANDLE OF NEBRASKA...

CITY           SKY/WX    TMP DP  RH WIND       PRES   REMARKS
PINE RIDGE     CLOUDY    76  58  53 S18G26    29.91F
CHADRON        PTCLDY    74  58  57 NW12      29.96R
ALLIANCE       CLOUDY    66  60  81 S12       30.00F
SIDNEY         CLOUDY    69  61  75 SE12      30.06F
CRESCENT LAKE    N/A     67  62  83 S6G13       N/A
$$

...OBSERVATIONS IN NORTHERN NEBRASKA AND FAR SOUTHERN SOUTH DAKOTA...

CITY           SKY/WX    TMP DP  RH WIND       PRES   REMARKS
WINNER         FAIR      84  76  76 SE12      29.89F HX  93
VALENTINE      CLOUDY    82  75  79 E10       29.91S
THEDFORD       LGT RAIN  73  64  71 S26G32    29.91F
AINSWORTH      LGT RAIN  81  78  90 SE9       29.94R
O`NEILL        CLOUDY    83  76  81 SE7       29.91F HX  91
ORD            CLOUDY    79  76  90 SE3       29.91S
BROKEN BOW     TSTM      73  68  84 W15       30.02R
VALENTINE NWR    N/A     82  76  83 SE10G20     N/A
BUTTE            N/A     81  77  86 E9          N/A
HALSEY           N/A     73  60  64 S16G30      N/A
EWING            N/A     80  78  93 CALM        N/A
$$

...OBSERVATIONS IN SOUTHWEST NEBRASKA AND FAR NORTHEAST COLORADO...

CITY           SKY/WX    TMP DP  RH WIND       PRES   REMARKS
WRAY           FAIR      72  63  73 NE10      30.02S
HOLYOKE        FAIR      73  68  83 W15       30.01F
IMPERIAL       TSTM      71  65  81 E17G25    30.02F
OGALLALA       CLOUDY    71  63  75 E17       30.01F
NORTH PLATTE   TSTM      69  66  90 NW20G25   30.08R FOG
MCCOOK         TSTM      70  64  81 N26G39    30.02R
LEXINGTON      CLOUDY    80  70  70 NW21G26   30.02R
STAPLETON        N/A     69  65  87 CALM        N/A
GOTHENBURG       N/A     77  66  69 NW12        N/A
CALLAWAY         N/A     69  66  90 NW12        N/A
$$

...OBSERVATIONS IN CENTRAL LINCOLN COUNTY AREA...

CITY           SKY/WX    TMP DP  RH WIND       PRES   REMARKS
N.P. AIRPORT   TSTM      69  66  90 NW20G25   30.08R FOG
N.P. DOWNTOWN    N/A     67  66  97 CALM        N/A
N.P. SOUTHEAST   N/A     67  65  95 NW3         N/A
N.P. HILLCREST   N/A     68  66  94 N9G17       N/A
$$

...SOME OBSERVATIONS FROM AROUND THE REGION...

CITY           SKY/WX    TMP DP  RH WIND       PRES   REMARKS
DENVER         CLOUDY    72  50  45 SW9       30.12S
LARAMIE        CLEAR     61  45  55 S10       30.26F
CHEYENNE       CLOUDY    74  45  35 NW5       30.18R
SCOTTSBLUFF    CLOUDY    67  60  78 SE8       30.01F
RAPID CITY     CLOUDY    73  57  57 SE9       29.95R
BISMARCK       LGT RAIN  68  64  87 S12       29.93F
PIERRE         CLOUDY    79  69  71 E21G30    29.87F
SIOUX FALLS    CLOUDY    81  78  91 E8        29.93F
OMAHA          MOCLDY    85  78  80 S10       29.90F HX  96
GRAND ISLAND   CLOUDY    77  72  84 E7        29.93S
KANSAS CITY    PTCLDY    79  73  82 S8        29.97S
WICHITA        CLEAR     83  68  60 S9        29.94R
OKLAHOMA CITY  CLEAR     77  69  76 S7        29.98F
DALLAS         PTCLDY    85  69  58 SE7       29.98S
AMARILLO       CLEAR     79  52  38 SE12      30.08S
DODGE CITY     CLEAR     77  60  55 S7        29.97S
HAYS           CLOUDY    84  59  42 S10       29.92S
GOODLAND       CLOUDY    81  60  48 S10       29.99F
$$




USA.gov is the U.S. government's official web portal to all federal, state and local government web resources and services.